TAP1255 GMMN-LPPT

Flight info

Callsign TAP1255
Flight time 0h 56m
Altitude 40000
Route LAKAM UR722 AMSEL DCT VATZI
Aircraft A343/H-SDE2E3FGHIJ4J5M1RWXY/LB1D1

Departure

Time 2026-05-07 16:37
Airport Mohammed V International Airport (GMMN)

Arrival

Time 2026-05-07 17:34
Airport Lisbon Humberto Delgado Airport (LPPT)
Time Latitude Longitude Altitude Speed Heading
2026-05-07 15:29 33.37107 -7.58165 657 ft 0 kts 75°
2026-05-07 16:22 33.37104 -7.58180 657 ft 4 kts 75°
2026-05-07 16:23 33.37096 -7.58212 657 ft 4 kts 73°
2026-05-07 16:23 33.37090 -7.58238 657 ft 3 kts 75°
2026-05-07 16:23 33.37091 -7.58262 657 ft 4 kts 143°
2026-05-07 16:23 33.37114 -7.58275 657 ft 3 kts 165°
2026-05-07 16:24 33.37101 -7.58271 657 ft 4 kts 165°
2026-05-07 16:24 33.37087 -7.58266 657 ft 0 kts 164°
2026-05-07 16:28 33.37086 -7.58266 657 ft 1 kts 164°
2026-05-07 16:28 33.37051 -7.58254 657 ft 10 kts 165°
2026-05-07 16:28 33.36972 -7.58234 657 ft 12 kts 179°
2026-05-07 16:29 33.36932 -7.58292 657 ft 10 kts 255°
2026-05-07 16:29 33.36915 -7.58375 657 ft 11 kts 256°
2026-05-07 16:29 33.36878 -7.58455 657 ft 11 kts 207°
2026-05-07 16:29 33.36799 -7.58446 657 ft 12 kts 163°
2026-05-07 16:30 33.36711 -7.58415 657 ft 14 kts 163°
2026-05-07 16:30 33.36613 -7.58380 657 ft 16 kts 164°
2026-05-07 16:30 33.36503 -7.58344 657 ft 17 kts 164°
2026-05-07 16:30 33.36382 -7.58303 657 ft 19 kts 164°
2026-05-07 16:31 33.36251 -7.58257 657 ft 20 kts 163°
2026-05-07 16:31 33.36110 -7.58208 656 ft 22 kts 164°
2026-05-07 16:31 33.35960 -7.58158 656 ft 23 kts 164°
2026-05-07 16:31 33.35801 -7.58105 656 ft 24 kts 164°
2026-05-07 16:32 33.35663 -7.58056 656 ft 19 kts 163°
2026-05-07 16:32 33.35535 -7.58012 657 ft 19 kts 165°
2026-05-07 16:32 33.35403 -7.57969 657 ft 19 kts 164°
2026-05-07 16:32 33.35299 -7.57950 657 ft 15 kts 191°
2026-05-07 16:33 33.35246 -7.58031 657 ft 7 kts 256°
2026-05-07 16:33 33.35244 -7.58042 657 ft 0 kts 256°
2026-05-07 16:34 33.35242 -7.58052 657 ft 2 kts 256°
2026-05-07 16:34 33.35236 -7.58079 657 ft 6 kts 256°
2026-05-07 16:34 33.35218 -7.58158 658 ft 13 kts 253°
2026-05-07 16:34 33.35228 -7.58253 658 ft 12 kts 312°
2026-05-07 16:35 33.35277 -7.58282 658 ft 0 kts 342°
2026-05-07 16:35 33.35279 -7.58282 658 ft 1 kts 342°
2026-05-07 16:35 33.35279 -7.58283 658 ft 0 kts 342°
2026-05-07 16:36 33.35285 -7.58284 658 ft 2 kts 343°
2026-05-07 16:36 33.35331 -7.58301 657 ft 22 kts 343°
2026-05-07 16:36 33.35681 -7.58422 650 ft 84 kts 343°
2026-05-07 16:37 33.36422 -7.58676 656 ft 135 kts 343°
2026-05-07 16:37 33.37438 -7.59038 900 ft 159 kts 344°
2026-05-07 16:37 33.38497 -7.59384 1559 ft 157 kts 345°
2026-05-07 16:37 33.39567 -7.59844 2028 ft 179 kts 332°
2026-05-07 16:38 33.40417 -7.61103 2377 ft 212 kts 300°
2026-05-07 16:38 33.41169 -7.62713 3140 ft 227 kts 304°
2026-05-07 16:38 33.42066 -7.64268 4087 ft 234 kts 308°
2026-05-07 16:38 33.43110 -7.65828 4962 ft 246 kts 309°
2026-05-07 16:39 33.44214 -7.67424 5940 ft 251 kts 308°
2026-05-07 16:39 33.45318 -7.69066 6950 ft 254 kts 305°
2026-05-07 16:39 33.46490 -7.70668 7924 ft 260 kts 315°
2026-05-07 16:39 33.48079 -7.71879 8650 ft 280 kts 338°
2026-05-07 16:40 33.50019 -7.72277 9447 ft 292 kts 355°
2026-05-07 16:40 33.52079 -7.72358 10254 ft 302 kts 357°
2026-05-07 16:40 33.54248 -7.72402 10691 ft 323 kts 357°
2026-05-07 16:40 33.56561 -7.72447 11057 ft 340 kts 357°
2026-05-07 16:41 33.58975 -7.72497 11361 ft 354 kts 357°
2026-05-07 16:41 33.61473 -7.72550 11810 ft 363 kts 356°
2026-05-07 16:41 33.64017 -7.72604 12341 ft 368 kts 356°
2026-05-07 16:41 33.66600 -7.72660 12903 ft 373 kts 356°
2026-05-07 16:42 33.69205 -7.72718 13472 ft 377 kts 356°
2026-05-07 16:42 33.71847 -7.72776 14023 ft 381 kts 356°
2026-05-07 16:42 33.74500 -7.72835 14560 ft 384 kts 355°
2026-05-07 16:42 33.77184 -7.72895 15088 ft 387 kts 355°
2026-05-07 16:43 33.79892 -7.72956 15624 ft 390 kts 355°
2026-05-07 16:43 33.82613 -7.73017 16144 ft 394 kts 355°
2026-05-07 16:43 33.85378 -7.73080 16673 ft 397 kts 354°
2026-05-07 16:43 33.88140 -7.73142 17204 ft 400 kts 354°
2026-05-07 16:44 33.90932 -7.73205 17766 ft 403 kts 354°
2026-05-07 16:44 33.93745 -7.73269 18307 ft 407 kts 353°
2026-05-07 16:44 33.96589 -7.73334 18788 ft 410 kts 353°
2026-05-07 16:44 33.99461 -7.73399 19317 ft 413 kts 353°
2026-05-07 16:45 34.02339 -7.73464 19816 ft 417 kts 353°
2026-05-07 16:45 34.05250 -7.73530 20296 ft 420 kts 353°
2026-05-07 16:45 34.08189 -7.73597 20786 ft 424 kts 353°
2026-05-07 16:45 34.11144 -7.73664 21259 ft 427 kts 353°
2026-05-07 16:46 34.14128 -7.73731 21748 ft 430 kts 353°
2026-05-07 16:46 34.17130 -7.73800 22229 ft 434 kts 353°
2026-05-07 16:46 34.20162 -7.73874 22703 ft 437 kts 353°
2026-05-07 16:46 34.23203 -7.74027 23193 ft 439 kts 351°
2026-05-07 16:47 34.26263 -7.74249 23633 ft 442 kts 351°
2026-05-07 16:47 34.29337 -7.74496 24044 ft 444 kts 350°
2026-05-07 16:47 34.32426 -7.74743 24494 ft 445 kts 351°
2026-05-07 16:47 34.35520 -7.74981 24942 ft 446 kts 351°
2026-05-07 16:48 34.38627 -7.75210 25370 ft 448 kts 351°
2026-05-07 16:48 34.41744 -7.75433 25796 ft 449 kts 351°
2026-05-07 16:48 34.44865 -7.75651 26217 ft 450 kts 351°
2026-05-07 16:48 34.48001 -7.75869 26632 ft 452 kts 351°
2026-05-07 16:49 34.51146 -7.76087 27017 ft 455 kts 351°
2026-05-07 16:49 34.54322 -7.76308 27378 ft 457 kts 351°
2026-05-07 16:49 34.57496 -7.76529 27768 ft 459 kts 351°
2026-05-07 16:49 34.60694 -7.76751 28168 ft 460 kts 351°
2026-05-07 16:50 34.63851 -7.76971 28553 ft 462 kts 351°
2026-05-07 16:50 34.67065 -7.77196 28936 ft 463 kts 351°
2026-05-07 16:50 34.70332 -7.77424 29320 ft 465 kts 351°
2026-05-07 16:50 34.73527 -7.77648 29691 ft 467 kts 351°
2026-05-07 16:51 34.76818 -7.77885 29989 ft 471 kts 350°
2026-05-07 16:51 34.80067 -7.78149 30162 ft 476 kts 350°
2026-05-07 16:51 34.83370 -7.78432 30485 ft 477 kts 349°
2026-05-07 16:51 34.86682 -7.78718 30827 ft 477 kts 349°
2026-05-07 16:52 34.90003 -7.79004 31167 ft 478 kts 349°
2026-05-07 16:52 34.93322 -7.79286 31500 ft 480 kts 349°
2026-05-07 16:52 34.96657 -7.79568 31818 ft 481 kts 349°
2026-05-07 16:52 34.99986 -7.79847 32273 ft 479 kts 349°
2026-05-07 16:53 35.03314 -7.80125 32588 ft 480 kts 349°
2026-05-07 16:53 35.06654 -7.80406 32906 ft 481 kts 349°
2026-05-07 16:53 35.09983 -7.80684 33344 ft 479 kts 349°
2026-05-07 16:53 35.13302 -7.80960 33781 ft 477 kts 349°
2026-05-07 16:54 35.16610 -7.81235 34167 ft 475 kts 349°
2026-05-07 16:54 35.19902 -7.81511 34519 ft 474 kts 349°
2026-05-07 16:54 35.23184 -7.81786 34867 ft 472 kts 349°
2026-05-07 16:54 35.26456 -7.82062 35222 ft 471 kts 348°
2026-05-07 16:55 35.29718 -7.82338 35524 ft 470 kts 348°
2026-05-07 16:55 35.32981 -7.82614 35834 ft 469 kts 348°
2026-05-07 16:55 35.36233 -7.82888 36168 ft 468 kts 348°
2026-05-07 16:55 35.39478 -7.83163 36485 ft 467 kts 348°
2026-05-07 16:56 35.42709 -7.83438 36796 ft 465 kts 348°
2026-05-07 16:56 35.45919 -7.83722 37103 ft 464 kts 347°
2026-05-07 16:56 35.52358 -7.84305 37793 ft 461 kts 347°
2026-05-07 16:57 35.55549 -7.84594 38129 ft 459 kts 347°
2026-05-07 16:57 35.58732 -7.84883 38408 ft 458 kts 347°
2026-05-07 16:57 35.61906 -7.85171 38663 ft 458 kts 347°
2026-05-07 16:57 35.65083 -7.85460 38862 ft 457 kts 347°
2026-05-07 16:58 35.68255 -7.85749 39043 ft 458 kts 347°
2026-05-07 16:58 35.71429 -7.86038 39220 ft 458 kts 347°
2026-05-07 16:58 35.74607 -7.86327 39393 ft 458 kts 347°
2026-05-07 16:58 35.77793 -7.86616 39564 ft 458 kts 347°
2026-05-07 16:59 35.80966 -7.86904 39727 ft 459 kts 347°
2026-05-07 16:59 35.84157 -7.87194 39887 ft 459 kts 347°
2026-05-07 16:59 35.90570 -7.87782 39947 ft 466 kts 348°
2026-05-07 17:00 35.96869 -7.89115 39946 ft 450 kts 333°
2026-05-07 17:00 36.02538 -7.92089 39940 ft 442 kts 326°
2026-05-07 17:01 36.08133 -7.95357 39939 ft 446 kts 326°
2026-05-07 17:01 36.13746 -7.98648 39938 ft 447 kts 326°
2026-05-07 17:02 36.18408 -8.01388 39938 ft 447 kts 326°
2026-05-07 17:02 36.24023 -8.04694 39955 ft 447 kts 326°
2026-05-07 17:03 36.30542 -8.08539 39936 ft 446 kts 326°
2026-05-07 17:03 36.35236 -8.11312 39936 ft 446 kts 326°
2026-05-07 17:04 36.40842 -8.14630 39936 ft 446 kts 326°
2026-05-07 17:04 36.46452 -8.17955 39935 ft 447 kts 326°
2026-05-07 17:05 36.52057 -8.21282 39934 ft 447 kts 326°
2026-05-07 17:05 36.57674 -8.24622 39927 ft 447 kts 326°
2026-05-07 17:06 36.63281 -8.27961 39930 ft 447 kts 326°
2026-05-07 17:06 36.68850 -8.31277 39799 ft 436 kts 326°
2026-05-07 17:07 36.71567 -8.32894 39545 ft 430 kts 326°
2026-05-07 17:07 36.74253 -8.34500 39184 ft 427 kts 325°
2026-05-07 17:07 36.76931 -8.36104 38729 ft 427 kts 324°
2026-05-07 17:07 36.79608 -8.37710 38191 ft 426 kts 324°
2026-05-07 17:08 36.82279 -8.39313 37634 ft 426 kts 324°
2026-05-07 17:08 36.84948 -8.40914 36804 ft 426 kts 324°
2026-05-07 17:08 36.87629 -8.42526 35827 ft 430 kts 325°
2026-05-07 17:08 36.90333 -8.44155 34832 ft 435 kts 326°
2026-05-07 17:09 36.93071 -8.45804 33804 ft 440 kts 326°
2026-05-07 17:09 36.95843 -8.47472 32678 ft 444 kts 326°
2026-05-07 17:09 36.98641 -8.49156 31579 ft 448 kts 327°
2026-05-07 17:09 37.01448 -8.50844 30761 ft 446 kts 327°
2026-05-07 17:10 37.04223 -8.52511 30155 ft 438 kts 328°
2026-05-07 17:10 37.06940 -8.54144 29690 ft 431 kts 328°
2026-05-07 17:10 37.09650 -8.55783 29463 ft 431 kts 328°
2026-05-07 17:10 37.12318 -8.57392 29256 ft 421 kts 328°
2026-05-07 17:11 37.14925 -8.58964 29031 ft 411 kts 328°
2026-05-07 17:11 37.17476 -8.60507 28826 ft 402 kts 328°
2026-05-07 17:11 37.19971 -8.62018 28589 ft 394 kts 328°
2026-05-07 17:11 37.22392 -8.63487 28273 ft 389 kts 328°
2026-05-07 17:12 37.24846 -8.64978 27896 ft 386 kts 328°
2026-05-07 17:12 37.27223 -8.66423 27508 ft 383 kts 328°
2026-05-07 17:12 37.29611 -8.67877 27118 ft 381 kts 328°
2026-05-07 17:12 37.31991 -8.69324 26734 ft 379 kts 328°
2026-05-07 17:13 37.34355 -8.70763 26343 ft 376 kts 328°
2026-05-07 17:13 37.36707 -8.72196 25979 ft 375 kts 328°
2026-05-07 17:13 37.39049 -8.73624 25559 ft 375 kts 328°
2026-05-07 17:13 37.41396 -8.75055 25201 ft 373 kts 328°
2026-05-07 17:14 37.43726 -8.76475 24838 ft 371 kts 328°
2026-05-07 17:14 37.46041 -8.77888 24472 ft 370 kts 328°
2026-05-07 17:14 37.48352 -8.79300 24120 ft 368 kts 328°
2026-05-07 17:14 37.50653 -8.80707 23763 ft 367 kts 329°
2026-05-07 17:15 37.52941 -8.82107 23379 ft 365 kts 329°
2026-05-07 17:15 37.55222 -8.83503 22979 ft 364 kts 329°
2026-05-07 17:15 37.57493 -8.84894 22591 ft 362 kts 329°
2026-05-07 17:15 37.59773 -8.86222 22208 ft 362 kts 333°
2026-05-07 17:16 37.62151 -8.87279 21846 ft 362 kts 337°
2026-05-07 17:16 37.64546 -8.88251 21463 ft 361 kts 337°
2026-05-07 17:16 37.66934 -8.89213 21097 ft 359 kts 337°
2026-05-07 17:16 37.69308 -8.90172 20747 ft 357 kts 338°
2026-05-07 17:17 37.71698 -8.91028 20376 ft 356 kts 341°
2026-05-07 17:17 37.74078 -8.91791 19746 ft 350 kts 341°
2026-05-07 17:17 37.76436 -8.92536 18975 ft 349 kts 342°
2026-05-07 17:17 37.78783 -8.93271 18241 ft 347 kts 342°
2026-05-07 17:18 37.81116 -8.93996 17446 ft 343 kts 343°
2026-05-07 17:18 37.83421 -8.94710 16687 ft 339 kts 343°
2026-05-07 17:18 37.85696 -8.95415 15961 ft 335 kts 343°
2026-05-07 17:18 37.87943 -8.96110 15232 ft 331 kts 344°
2026-05-07 17:19 37.90174 -8.96801 14559 ft 329 kts 344°
2026-05-07 17:19 37.92400 -8.97490 14106 ft 328 kts 345°
2026-05-07 17:19 37.94601 -8.98172 13720 ft 325 kts 345°
2026-05-07 17:19 37.96791 -8.98850 13263 ft 323 kts 345°
2026-05-07 17:20 37.98966 -8.99524 12825 ft 319 kts 345°
2026-05-07 17:20 38.01094 -9.00184 12196 ft 313 kts 344°
2026-05-07 17:20 38.03211 -9.00841 11426 ft 312 kts 345°
2026-05-07 17:20 38.05310 -9.01493 10731 ft 310 kts 345°
2026-05-07 17:21 38.07372 -9.02133 10463 ft 305 kts 345°
2026-05-07 17:21 38.09419 -9.02769 10329 ft 303 kts 345°
2026-05-07 17:21 38.11485 -9.03413 10267 ft 308 kts 344°
2026-05-07 17:21 38.13554 -9.04056 10126 ft 303 kts 344°
2026-05-07 17:22 38.15603 -9.04694 9841 ft 302 kts 345°
2026-05-07 17:22 38.17636 -9.05327 9468 ft 302 kts 345°
2026-05-07 17:22 38.19674 -9.05962 9080 ft 303 kts 344°
2026-05-07 17:22 38.21721 -9.06601 8745 ft 301 kts 345°
2026-05-07 17:23 38.23742 -9.07231 8464 ft 297 kts 345°
2026-05-07 17:23 38.25744 -9.07856 8167 ft 296 kts 345°
2026-05-07 17:23 38.27747 -9.08481 7937 ft 296 kts 345°
2026-05-07 17:23 38.29737 -9.09103 7736 ft 292 kts 344°
2026-05-07 17:24 38.31665 -9.09728 7630 ft 281 kts 341°
2026-05-07 17:24 38.33300 -9.10934 7429 ft 267 kts 309°
2026-05-07 17:24 38.34098 -9.12956 7267 ft 252 kts 276°
2026-05-07 17:24 38.34088 -9.15126 7077 ft 243 kts 265°
2026-05-07 17:25 38.34571 -9.17271 6864 ft 263 kts 299°
2026-05-07 17:25 38.35843 -9.18853 6918 ft 254 kts 328°
2026-05-07 17:25 38.37502 -9.19561 6783 ft 253 kts 347°
2026-05-07 17:25 38.39253 -9.19895 6493 ft 254 kts 351°
2026-05-07 17:26 38.40997 -9.20189 6287 ft 252 kts 349°
2026-05-07 17:26 38.42727 -9.20495 6079 ft 249 kts 349°
2026-05-07 17:26 38.44435 -9.20810 5800 ft 247 kts 348°
2026-05-07 17:26 38.46136 -9.21133 5479 ft 246 kts 349°
2026-05-07 17:27 38.47796 -9.21453 5279 ft 243 kts 349°
2026-05-07 17:27 38.49474 -9.21776 5077 ft 239 kts 348°
2026-05-07 17:27 38.51089 -9.22089 4969 ft 232 kts 348°
2026-05-07 17:27 38.52662 -9.22395 4858 ft 225 kts 349°
2026-05-07 17:28 38.54184 -9.22692 4753 ft 218 kts 348°
2026-05-07 17:28 38.55665 -9.22981 4655 ft 211 kts 347°
2026-05-07 17:28 38.57066 -9.23254 4511 ft 201 kts 348°
2026-05-07 17:28 38.58442 -9.23502 4214 ft 194 kts 352°
2026-05-07 17:29 38.59753 -9.23274 4031 ft 187 kts 12°
2026-05-07 17:29 38.60975 -9.22714 3749 ft 186 kts 19°
2026-05-07 17:29 38.62164 -9.22108 3459 ft 182 kts 18°
2026-05-07 17:29 38.63322 -9.21497 3210 ft 177 kts 17°
2026-05-07 17:30 38.64425 -9.20908 2963 ft 170 kts 17°
2026-05-07 17:30 38.65519 -9.20327 2734 ft 166 kts 17°
2026-05-07 17:30 38.66585 -9.19760 2521 ft 167 kts 17°
2026-05-07 17:30 38.67648 -9.19193 2277 ft 164 kts 17°
2026-05-07 17:31 38.68689 -9.18638 2062 ft 165 kts 17°
2026-05-07 17:31 38.69740 -9.18078 1832 ft 160 kts 18°
2026-05-07 17:31 38.70733 -9.17546 1629 ft 149 kts 17°
2026-05-07 17:31 38.71652 -9.17055 1437 ft 137 kts 14°
2026-05-07 17:32 38.72517 -9.16573 1224 ft 135 kts 18°
2026-05-07 17:32 38.73382 -9.16091 1044 ft 136 kts 15°
2026-05-07 17:32 38.74241 -9.15648 900 ft 131 kts 13°
2026-05-07 17:32 38.74814 -9.15376 787 ft 130 kts 16°
2026-05-07 17:33 38.75926 -9.14772 544 ft 134 kts 17°
2026-05-07 17:33 38.76789 -9.14303 368 ft 133 kts 18°
2026-05-07 17:33 38.77501 -9.13931 373 ft 76 kts 22°
2026-05-07 17:33 38.77859 -9.13740 371 ft 51 kts 22°
2026-05-07 17:34 38.78158 -9.13579 374 ft 43 kts 23°
2026-05-07 17:34 38.78355 -9.13376 370 ft 22 kts 51°
2026-05-07 17:34 38.78362 -9.13286 368 ft 8 kts 119°
2026-05-07 17:34 38.78314 -9.13274 370 ft 6 kts 194°
2026-05-07 17:35 38.78262 -9.13298 369 ft 9 kts 201°
2026-05-07 17:35 38.78199 -9.13330 366 ft 4 kts 201°
2026-05-07 17:35 38.78173 -9.13343 368 ft 4 kts 201°
2026-05-07 17:35 38.78147 -9.13356 368 ft 5 kts 201°
2026-05-07 17:36 38.78112 -9.13374 369 ft 7 kts 201°
2026-05-07 17:36 38.78062 -9.13399 368 ft 9 kts 202°
2026-05-07 17:36 38.77996 -9.13435 365 ft 12 kts 202°
2026-05-07 17:36 38.77920 -9.13476 365 ft 12 kts 202°
2026-05-07 17:37 38.77842 -9.13517 365 ft 12 kts 202°
2026-05-07 17:37 38.77763 -9.13559 366 ft 12 kts 202°
2026-05-07 17:37 38.77685 -9.13595 366 ft 12 kts 191°
2026-05-07 17:37 38.77591 -9.13581 361 ft 16 kts 169°
2026-05-07 17:38 38.77511 -9.13560 363 ft 0 kts 167°
2026-05-07 17:38 38.77504 -9.13558 362 ft 3 kts 167°
2026-05-07 17:38 38.77471 -9.13548 358 ft 7 kts 167°
2026-05-07 17:38 38.77430 -9.13536 358 ft 1 kts 167°
2026-05-07 17:39 38.77409 -9.13530 351 ft 5 kts 167°
2026-05-07 17:39 38.77361 -9.13516 351 ft 9 kts 167°
2026-05-07 17:39 38.77304 -9.13527 361 ft 8 kts 218°
2026-05-07 17:39 38.77284 -9.13580 355 ft 6 kts 253°
2026-05-07 17:40 38.77275 -9.13630 359 ft 5 kts 257°
2026-05-07 17:40 38.77266 -9.13677 361 ft 6 kts 257°
2026-05-07 17:40 38.77251 -9.13719 365 ft 5 kts 223°
2026-05-07 17:40 38.77217 -9.13744 360 ft 7 kts 202°
2026-05-07 17:41 38.77168 -9.13767 363 ft 9 kts 200°
2026-05-07 17:41 38.77121 -9.13787 365 ft 3 kts 199°
2026-05-07 17:41 38.77101 -9.13797 363 ft 0 kts 199°